COSMOS 2251 DEB

Satellite information

Favourite Embed

Satellite Type and Status

DEBRISIN ORBIT

Key statistics

Satellite COSMOS 2251 DEB at a glance.

Uptime

11869

Days in orbit

Revolutions

≈ 14.8

Per day

Orbit

LEO

Low Earth Orbit

Inclination

74.1

Latest

Satellite identification and parameters

Extended collection of information and parameters for COSMOS 2251 DEB.

Object identification

Identified? True

Debris? True

Object name: COSMOS 2251 DEB

International designator: 1993-036YB

Object number (NORAD): 34681

Object ID (CCSDS): 34681

Country: COMMONWEALTH OF INDEPENDENT STATES (CIS)

Current information (Y/N): Y

RCS size: SMALL

Orbital parameters

Period: 97.085 minutes

Inclination: 74.062 deg

SMA: 6997.245 km

Apoapsis: 637.01 km

Periapsis: 601.21 km

RAAN: 289.3719 deg

Eccentricy: 0.00255814

Argument of periapsis: 345.9986 deg

Mean anomaly: 134.8905 deg

Mean motion: 14.83242328 rev/day

Mean motion (dot): 0.00020629 rev/day2

B* drag term: 0.0025054122 1/REarth

Two-line elements (TLE)

Creation date: Dec. 13, 2025, 5:47 p.m.

Reference frame: TEME

Reference center: EARTH

Epoch: Dec. 13, 2025, 6:11 a.m. UTC

TLE line 0: 0 COSMOS 2251 DEB

TLE line 1: 1 34681U 93036YB 25347.25799313 .00020629 00000-0 25054-2 0 9990

TLE line 2: 2 34681 74.0620 289.3719 0025581 345.9986 134.8905 14.83242328892788

Live tracking on map

Real-time ground track for satellite COSMOS 2251 DEB.

In-orbit conjunctions

A list of the most updated potential collisions computed for object COSMOS 2251 DEB.

Target Orbit TCA Probability of collision Miss distance Type
CZ-2C R/B SSO 2025-07-05 13:45:05 0.0006699586 233.0 (m) ROCKET BODY
CZ-6A DEB LEO 2025-03-05 17:06:11 0.0001460518 674.0 (m) DEBRIS

Associated space launch

Military communications satellite. Destroyed in a collision with Iridium 33.

COSMOS 2251 DEB was lifted into orbit during the mission ‘Kosmos-3M | Strela-2M 51’, on board a Kosmos-3M space rocket.

The launch took place on June 16, 1993, 4:17 a.m. from 132/1 (132L).

For more information about the launch, click the button.

Launch to space Kosmos-3M | Strela-2M 51
Kosmos-3M | Strela-2M 51

Agency: N/A

Status: Launch Successful

Launch date: June 16, 1993, 4:17 a.m. UTC

Rocket: Kosmos-3M

Launch pad: 132/1 (132L)

Location: Plesetsk Cosmodrome, Russian Federation

...

Latest news about this satellite

There are no fresh news available about this satellite. Check back as we update our databases every day.


Newsletter sign-up

Weekly statistics, charts and insights to help you stay on top of the space industry.